Time,TemperatureF,DewpointF,PressureIn,WindDirection,WindDirectionDegrees,WindSpeedMPH,WindSpeedGustMPH,Humidity,HourlyPrecipIn,Conditions,Clouds,dailyrainin,SoftwareType,DateUTC
2013-05-16 00:00:00,73.5,31.2,29.78,ESE,105,0.0,0.0,21,0.00,,---,0.00,VWS V14.01,2013-05-16 07:00:00,
2013-05-16 00:05:00,74.2,30.6,29.78,ESE,104,0.0,1.0,20,0.00,,---,0.00,VWS V14.01,2013-05-16 07:05:00,
2013-05-16 00:10:00,74.5,30.8,29.78,ESE,104,0.0,1.0,20,0.00,,---,0.00,VWS V14.01,2013-05-16 07:10:00,
2013-05-16 00:15:00,74.7,31.0,29.78,ESE,104,0.0,1.0,20,0.00,,---,0.00,VWS V14.01,2013-05-16 07:15:00,
2013-05-16 00:20:00,74.9,31.2,29.78,ESE,104,0.0,1.0,20,0.00,,---,0.00,VWS V14.01,2013-05-16 07:20:00,
2013-05-16 00:25:00,74.1,30.5,29.78,ESE,104,0.0,1.0,20,0.00,,---,0.00,VWS V14.01,2013-05-16 07:25:00,
2013-05-16 00:30:00,73.6,31.3,29.78,ESE,104,0.0,1.0,21,0.00,,---,0.00,VWS V14.01,2013-05-16 07:30:00,
2013-05-16 00:35:00,73.4,31.1,29.78,ESE,104,0.0,0.0,21,0.00,,---,0.00,VWS V14.01,2013-05-16 07:35:00,
2013-05-16 00:41:00,73.1,30.9,29.78,ESE,104,0.0,0.0,21,0.00,,---,0.00,VWS V14.01,2013-05-16 07:41:00,
2013-05-16 00:46:00,73.1,29.7,29.78,ESE,104,0.0,0.0,20,0.00,,---,0.00,VWS V14.01,2013-05-16 07:46:00,
2013-05-16 00:51:00,73.7,30.2,29.77,ESE,104,0.0,0.0,20,0.00,,---,0.00,VWS V14.01,2013-05-16 07:51:00,
2013-05-16 00:56:00,73.5,30.0,29.77,ESE,104,0.0,0.0,20,0.00,,---,0.00,VWS V14.01,2013-05-16 07:56:00,
2013-05-16 01:00:00,72.9,29.5,29.77,ESE,112,0.0,0.0,20,0.00,,---,0.00,VWS V14.01,2013-05-16 08:00:00,
2013-05-16 01:01:00,73.3,31.0,29.78,ESE,104,0.0,0.0,21,0.00,,---,0.00,VWS V14.01,2013-05-16 08:01:00,
2013-05-16 01:06:00,72.7,29.4,29.78,ESE,104,0.0,0.0,20,0.00,,---,0.00,VWS V14.01,2013-05-16 08:06:00,
2013-05-16 01:11:00,72.5,30.4,29.78,East,98,0.0,0.0,21,0.00,,---,0.00,VWS V14.01,2013-05-16 08:11:00,
2013-05-16 01:16:00,71.9,29.9,29.78,East,98,0.0,0.0,21,0.00,,---,0.00,VWS V14.01,2013-05-16 08:16:00,
2013-05-16 01:21:00,71.3,30.5,29.78,East,98,0.0,0.0,22,0.00,,---,0.00,VWS V14.01,2013-05-16 08:21:00,
2013-05-16 01:26:00,70.9,29.0,29.77,East,98,0.0,0.0,21,0.00,,---,0.00,VWS V14.01,2013-05-16 08:26:00,
2013-05-16 01:30:00,70.8,30.1,29.77,ESE,112,0.0,0.0,22,0.00,,---,0.00,VWS V14.01,2013-05-16 08:30:00,
2013-05-16 01:32:00,70.6,29.9,29.78,East,98,0.0,0.0,22,0.00,,---,0.00,VWS V14.01,2013-05-16 08:32:00,
2013-05-16 01:37:00,70.7,30.0,29.77,East,98,0.0,0.0,22,0.00,,---,0.00,VWS V14.01,2013-05-16 08:37:00,
2013-05-16 01:42:00,70.3,30.8,29.77,East,98,0.0,0.0,23,0.00,,---,0.00,VWS V14.01,2013-05-16 08:42:00,
2013-05-16 01:47:00,69.8,31.4,29.77,East,91,0.0,0.0,24,0.00,,---,0.00,VWS V14.01,2013-05-16 08:47:00,
2013-05-16 01:52:00,69.6,32.2,29.77,ENE,76,0.0,0.0,25,0.00,,---,0.00,VWS V14.01,2013-05-16 08:52:00,
2013-05-16 01:57:00,69.5,31.2,29.77,ENE,74,1.0,1.0,24,0.00,,---,0.00,VWS V14.01,2013-05-16 08:57:00,
2013-05-16 02:00:00,70.3,29.7,29.77,ENE,68,0.0,2.0,22,0.00,,---,0.00,VWS V14.01,2013-05-16 09:00:00,
2013-05-16 02:02:00,70.0,30.5,29.77,ENE,74,0.0,2.0,23,0.00,,---,0.00,VWS V14.01,2013-05-16 09:02:00,
2013-05-16 02:07:00,70.3,31.8,29.77,NNE,16,0.0,1.0,24,0.00,,---,0.00,VWS V14.01,2013-05-16 09:07:00,
2013-05-16 02:12:00,69.5,31.2,29.77,NNE,18,0.0,1.0,24,0.00,,---,0.00,VWS V14.01,2013-05-16 09:12:00,
2013-05-16 02:17:00,69.0,30.7,29.77,NNE,18,0.0,1.0,24,0.00,,---,0.00,VWS V14.01,2013-05-16 09:17:00,
2013-05-16 02:23:00,68.8,30.6,29.77,NNE,18,0.0,1.0,24,0.00,,---,0.00,VWS V14.01,2013-05-16 09:23:00,
2013-05-16 02:28:00,68.5,31.3,29.76,NNE,18,0.0,1.0,25,0.00,,---,0.00,VWS V14.01,2013-05-16 09:28:00,
2013-05-16 02:30:00,68.2,31.1,29.77,NNE,22,0.0,1.0,25,0.00,,---,0.00,VWS V14.01,2013-05-16 09:30:00,
2013-05-16 02:33:00,68.3,31.1,29.76,NNE,18,0.0,1.0,25,0.00,,---,0.00,VWS V14.01,2013-05-16 09:33:00,
2013-05-16 02:38:00,68.0,30.9,29.77,NNE,18,0.0,0.0,25,0.00,,---,0.00,VWS V14.01,2013-05-16 09:38:00,
2013-05-16 02:43:00,67.9,31.8,29.77,NNE,18,0.0,0.0,26,0.00,,---,0.00,VWS V14.01,2013-05-16 09:43:00,
2013-05-16 02:48:00,67.7,30.6,29.77,NNE,16,1.0,2.0,25,0.00,,---,0.00,VWS V14.01,2013-05-16 09:48:00,
2013-05-16 02:53:00,67.5,31.4,29.77,NNE,24,1.0,3.0,26,0.00,,---,0.00,VWS V14.01,2013-05-16 09:53:00,
2013-05-16 02:58:00,67.4,31.4,29.77,NNE,24,1.0,3.0,26,0.00,,---,0.00,VWS V14.01,2013-05-16 09:58:00,
2013-05-16 03:00:00,67.5,31.4,29.77,NNE,22,1.0,3.0,26,0.00,,---,0.00,VWS V14.01,2013-05-16 10:00:00,
2013-05-16 03:03:00,67.4,31.4,29.77,NNE,29,2.0,3.0,26,0.00,,---,0.00,VWS V14.01,2013-05-16 10:03:00,
2013-05-16 03:08:00,67.6,31.5,29.77,NNE,29,1.0,1.0,26,0.00,,---,0.00,VWS V14.01,2013-05-16 10:08:00,
2013-05-16 03:14:00,67.3,31.3,29.77,NNE,29,1.0,1.0,26,0.00,,---,0.00,VWS V14.01,2013-05-16 10:14:00,
2013-05-16 03:19:00,66.9,30.9,29.77,NNE,18,2.0,3.0,26,0.00,,---,0.00,VWS V14.01,2013-05-16 10:19:00,
2013-05-16 03:24:00,66.7,30.8,29.77,NNE,22,1.0,3.0,26,0.00,,---,0.00,VWS V14.01,2013-05-16 10:24:00,
2013-05-16 03:29:00,66.4,30.5,29.77,NNE,29,2.0,3.0,26,0.00,,---,0.00,VWS V14.01,2013-05-16 10:29:00,
2013-05-16 03:30:00,66.1,30.2,29.77,NNE,22,1.0,4.0,26,0.00,,---,0.00,VWS V14.01,2013-05-16 10:30:00,
2013-05-16 03:34:00,66.2,30.3,29.77,NNE,22,1.0,4.0,26,0.00,,---,0.00,VWS V14.01,2013-05-16 10:34:00,
2013-05-16 03:39:00,65.9,30.1,29.77,NNE,15,0.0,3.0,26,0.00,,---,0.00,VWS V14.01,2013-05-16 10:39:00,
2013-05-16 03:44:00,65.7,30.8,29.77,NNE,23,0.0,3.0,27,0.00,,---,0.00,VWS V14.01,2013-05-16 10:44:00,
2013-05-16 03:49:00,65.6,30.8,29.77,NNE,22,0.0,3.0,27,0.00,,---,0.00,VWS V14.01,2013-05-16 10:49:00,
2013-05-16 03:54:00,65.5,30.7,29.77,NNE,23,1.0,3.0,27,0.00,,---,0.00,VWS V14.01,2013-05-16 10:54:00,
2013-05-16 03:59:00,65.6,30.8,29.77,NNE,12,2.0,3.0,27,0.00,,---,0.00,VWS V14.01,2013-05-16 10:59:00,
2013-05-16 04:00:00,65.1,30.3,29.77,NNE,22,1.0,3.0,27,0.00,,---,0.00,VWS V14.01,2013-05-16 11:00:00,
2013-05-16 04:04:00,65.1,30.3,29.77,North,5,1.0,3.0,27,0.00,,---,0.00,VWS V14.01,2013-05-16 11:04:00,
2013-05-16 04:09:00,65.3,30.5,29.77,NNE,19,2.0,2.0,27,0.00,,---,0.00,VWS V14.01,2013-05-16 11:09:00,
2013-05-16 04:15:00,65.0,30.2,29.77,NNW,348,0.0,2.0,27,0.00,,---,0.00,VWS V14.01,2013-05-16 11:15:00,
2013-05-16 04:20:00,64.9,31.0,29.77,NNE,22,2.0,2.0,28,0.00,,---,0.00,VWS V14.01,2013-05-16 11:20:00,
2013-05-16 04:25:00,65.1,30.3,29.77,NNE,22,0.0,2.0,27,0.00,,---,0.00,VWS V14.01,2013-05-16 11:25:00,
2013-05-16 04:30:00,65.1,31.2,29.77,NNE,20,0.0,2.0,28,0.00,,---,0.00,VWS V14.01,2013-05-16 11:30:00,
2013-05-16 04:35:00,64.7,30.9,29.77,NNE,22,1.0,2.0,28,0.00,,---,0.00,VWS V14.01,2013-05-16 11:35:00,
2013-05-16 04:40:00,64.8,31.0,29.77,NE,47,1.0,3.0,28,0.00,,---,0.00,VWS V14.01,2013-05-16 11:40:00,
2013-05-16 04:45:00,64.3,30.5,29.77,NNE,29,2.0,3.0,28,0.00,,---,0.00,VWS V14.01,2013-05-16 11:45:00,
2013-05-16 04:50:00,63.6,29.9,29.77,NE,39,2.0,3.0,28,0.00,,---,0.00,VWS V14.01,2013-05-16 11:50:00,
2013-05-16 04:55:00,63.3,29.7,29.77,NE,42,2.0,3.0,28,0.00,,---,0.00,VWS V14.01,2013-05-16 11:55:00,
2013-05-16 05:00:00,62.8,30.1,29.77,NE,48,0.0,3.0,29,0.00,,---,0.00,VWS V14.01,2013-05-16 12:00:00,
2013-05-16 05:05:00,62.1,30.3,29.77,NE,37,2.0,2.0,30,0.00,,---,0.00,VWS V14.01,2013-05-16 12:05:00,
2013-05-16 05:11:00,62.0,30.2,29.77,NE,47,1.0,4.0,30,0.00,,---,0.00,VWS V14.01,2013-05-16 12:11:00,
2013-05-16 05:16:00,61.8,30.1,29.77,NE,42,2.0,4.0,30,0.00,,---,0.00,VWS V14.01,2013-05-16 12:16:00,
2013-05-16 05:21:00,61.8,30.1,29.77,NE,39,2.0,4.0,30,0.00,,---,0.00,VWS V14.01,2013-05-16 12:21:00,
2013-05-16 05:26:00,62.0,30.2,29.77,NE,42,2.0,4.0,30,0.00,,---,0.00,VWS V14.01,2013-05-16 12:26:00,
2013-05-16 05:30:00,61.8,30.1,29.78,NE,45,2.0,4.0,30,0.00,,---,0.00,VWS V14.01,2013-05-16 12:30:00,
2013-05-16 05:31:00,62.0,30.2,29.77,ENE,58,2.0,4.0,30,0.00,,---,0.00,VWS V14.01,2013-05-16 12:31:00,
2013-05-16 05:36:00,61.8,30.1,29.77,NE,41,3.0,3.0,30,0.00,,---,0.00,VWS V14.01,2013-05-16 12:36:00,
2013-05-16 05:41:00,61.7,30.0,29.78,NE,39,3.0,3.0,30,0.00,,---,0.00,VWS V14.01,2013-05-16 12:41:00,
2013-05-16 05:46:00,61.8,30.1,29.78,NE,53,2.0,3.0,30,0.00,,---,0.00,VWS V14.01,2013-05-16 12:46:00,
2013-05-16 05:51:00,61.7,30.0,29.78,NNE,25,3.0,3.0,30,0.00,,---,0.00,VWS V14.01,2013-05-16 12:51:00,
2013-05-16 05:56:00,61.9,30.1,29.78,NE,52,2.0,4.0,30,0.00,,---,0.00,VWS V14.01,2013-05-16 12:56:00,
2013-05-16 06:00:00,62.4,30.6,29.78,NE,45,2.0,4.0,30,0.00,,---,0.00,VWS V14.01,2013-05-16 13:00:00,
2013-05-16 06:01:00,62.1,30.3,29.78,NNE,23,3.0,4.0,30,0.00,,---,0.00,VWS V14.01,2013-05-16 13:01:00,
2013-05-16 06:07:00,62.8,30.9,29.78,NNE,19,1.0,2.0,30,0.00,,---,0.00,VWS V14.01,2013-05-16 13:07:00,
2013-05-16 06:12:00,63.6,30.8,29.78,NNE,18,3.0,3.0,29,0.00,,---,0.00,VWS V14.01,2013-05-16 13:12:00,
2013-05-16 06:17:00,64.8,31.0,29.79,NNE,30,0.0,4.0,28,0.00,,---,0.00,VWS V14.01,2013-05-16 13:17:00,
2013-05-16 06:22:00,65.8,31.8,29.79,NNE,26,1.0,4.0,28,0.00,,---,0.00,VWS V14.01,2013-05-16 13:22:00,
2013-05-16 06:27:00,66.7,32.6,29.79,NNE,26,0.0,4.0,28,0.00,,---,0.00,VWS V14.01,2013-05-16 13:27:00,
2013-05-16 06:30:00,67.9,33.6,29.79,NNE,22,1.0,4.0,28,0.00,,---,0.00,VWS V14.01,2013-05-16 13:30:00,
2013-05-16 06:32:00,67.6,33.4,29.79,NNE,18,1.0,4.0,28,0.00,,---,0.00,VWS V14.01,2013-05-16 13:32:00,
2013-05-16 06:37:00,68.3,34.0,29.79,NNE,18,0.0,1.0,28,0.00,,---,0.00,VWS V14.01,2013-05-16 13:37:00,
2013-05-16 06:42:00,68.7,33.4,29.79,NE,46,1.0,2.0,27,0.00,,---,0.00,VWS V14.01,2013-05-16 13:42:00,
2013-05-16 06:47:00,69.1,33.7,29.79,NNE,26,2.0,3.0,27,0.00,,---,0.00,VWS V14.01,2013-05-16 13:47:00,
2013-05-16 06:52:00,69.4,33.1,29.79,NE,51,1.0,3.0,26,0.00,,---,0.00,VWS V14.01,2013-05-16 13:52:00,
2013-05-16 06:57:00,69.9,34.4,29.79,NNE,22,1.0,3.0,27,0.00,,---,0.00,VWS V14.01,2013-05-16 13:57:00,
2013-05-16 07:00:00,71.0,34.4,29.79,NNE,22,1.0,3.0,26,0.00,,---,0.00,VWS V14.01,2013-05-16 14:00:00,
2013-05-16 07:03:00,70.6,34.1,29.79,NNE,31,0.0,3.0,26,0.00,,---,0.00,VWS V14.01,2013-05-16 14:03:00,
2013-05-16 07:08:00,71.6,34.0,29.79,NE,51,0.0,2.0,25,0.00,,---,0.00,VWS V14.01,2013-05-16 14:08:00,
2013-05-16 07:13:00,72.6,34.8,29.80,NE,52,0.0,2.0,25,0.00,,---,0.00,VWS V14.01,2013-05-16 14:13:00,
2013-05-16 07:18:00,73.7,34.7,29.79,NE,53,0.0,2.0,24,0.00,,---,0.00,VWS V14.01,2013-05-16 14:18:00,
2013-05-16 07:23:00,74.4,35.3,29.79,NE,53,0.0,2.0,24,0.00,,---,0.00,VWS V14.01,2013-05-16 14:23:00,
2013-05-16 07:28:00,75.3,36.0,29.79,NE,53,0.0,2.0,24,0.00,,---,0.00,VWS V14.01,2013-05-16 14:28:00,
2013-05-16 07:30:00,77.1,36.5,29.79,NE,45,0.0,2.0,23,0.00,,---,0.00,VWS V14.01,2013-05-16 14:30:00,
2013-05-16 07:33:00,76.8,36.2,29.80,NE,53,0.0,2.0,23,0.00,,---,0.00,VWS V14.01,2013-05-16 14:33:00,
2013-05-16 07:38:00,77.6,35.8,29.80,NE,53,0.0,0.0,22,0.00,,---,0.00,VWS V14.01,2013-05-16 14:38:00,
2013-05-16 07:43:00,78.9,36.9,29.80,NE,53,0.0,0.0,22,0.00,,---,0.00,VWS V14.01,2013-05-16 14:43:00,
2013-05-16 07:48:00,79.7,35.1,29.79,NE,53,0.0,0.0,20,0.00,,---,0.00,VWS V14.01,2013-05-16 14:48:00,
2013-05-16 07:53:00,80.2,32.9,29.80,NNE,32,0.0,0.0,18,0.00,,---,0.00,VWS V14.01,2013-05-16 14:53:00,
2013-05-16 07:58:00,81.0,33.5,29.80,NE,34,0.0,0.0,18,0.00,,---,0.00,VWS V14.01,2013-05-16 14:58:00,
2013-05-16 08:00:00,82.1,31.5,29.80,NE,45,0.0,0.0,16,0.00,,---,0.00,VWS V14.01,2013-05-16 15:00:00,
2013-05-16 08:04:00,82.1,31.5,29.80,NNE,33,0.0,0.0,16,0.00,,---,0.00,VWS V14.01,2013-05-16 15:04:00,
2013-05-16 08:09:00,82.3,31.7,29.79,SSW,197,0.0,0.0,16,0.00,,---,0.00,VWS V14.01,2013-05-16 15:09:00,
2013-05-16 08:14:00,83.3,32.5,29.79,SW,224,0.0,0.0,16,0.00,,---,0.00,VWS V14.01,2013-05-16 15:14:00,
2013-05-16 08:19:00,83.7,31.2,29.80,SW,228,0.0,1.0,15,0.00,,---,0.00,VWS V14.01,2013-05-16 15:19:00,
2013-05-16 08:24:00,83.3,30.9,29.79,WSW,243,0.0,2.0,15,0.00,,---,0.00,VWS V14.01,2013-05-16 15:24:00,
2013-05-16 08:29:00,83.7,29.5,29.79,SSE,154,1.0,2.0,14,0.00,,---,0.00,VWS V14.01,2013-05-16 15:29:00,
2013-05-16 08:30:00,83.7,27.7,29.79,SW,225,0.0,3.0,13,0.00,,---,0.00,VWS V14.01,2013-05-16 15:30:00,
2013-05-16 08:34:00,83.7,27.7,29.79,SW,230,2.0,3.0,13,0.00,,---,0.00,VWS V14.01,2013-05-16 15:34:00,
2013-05-16 08:39:00,83.4,27.5,29.79,SW,221,2.0,5.0,13,0.00,,---,0.00,VWS V14.01,2013-05-16 15:39:00,
2013-05-16 08:44:00,83.8,27.8,29.79,SW,222,4.0,5.0,13,0.00,,---,0.00,VWS V14.01,2013-05-16 15:44:00,
2013-05-16 08:49:00,84.1,28.0,29.79,WSW,238,4.0,6.0,13,0.00,,---,0.00,VWS V14.01,2013-05-16 15:49:00,
2013-05-16 08:55:00,84.7,30.3,29.79,SSW,192,0.0,6.0,14,0.00,,---,0.00,VWS V14.01,2013-05-16 15:55:00,
2013-05-16 09:00:00,85.2,28.9,29.79,WSW,247,2.0,6.0,13,0.00,,---,0.00,VWS V14.01,2013-05-16 16:00:00,
2013-05-16 09:05:00,85.2,28.9,29.79,SSE,148,3.0,3.0,13,0.00,,---,0.00,VWS V14.01,2013-05-16 16:05:00,
2013-05-16 09:10:00,85.9,29.4,29.79,SW,221,2.0,7.0,13,0.00,,---,0.00,VWS V14.01,2013-05-16 16:10:00,
2013-05-16 09:15:00,86.3,25.7,29.79,SSW,203,4.0,10.0,11,0.00,,---,0.00,VWS V14.01,2013-05-16 16:15:00,
2013-05-16 09:20:00,86.5,25.8,29.79,SSE,153,2.0,10.0,11,0.00,,---,0.00,VWS V14.01,2013-05-16 16:20:00,
2013-05-16 09:25:00,86.7,26.0,29.78,SSE,162,2.0,10.0,11,0.00,,---,0.00,VWS V14.01,2013-05-16 16:25:00,
2013-05-16 09:30:00,86.7,28.1,29.78,SW,236,5.0,10.0,12,0.00,,---,0.00,VWS V14.01,2013-05-16 16:30:00,
2013-05-16 09:35:00,86.9,26.1,29.78,SSW,210,4.0,7.0,11,0.00,,---,0.00,VWS V14.01,2013-05-16 16:35:00,
2013-05-16 09:40:00,86.8,28.1,29.79,SSW,193,5.0,8.0,12,0.00,,---,0.00,VWS V14.01,2013-05-16 16:40:00,
2013-05-16 09:45:00,86.8,28.1,29.78,SSW,192,5.0,10.0,12,0.00,,---,0.00,VWS V14.01,2013-05-16 16:45:00,
2013-05-16 09:50:00,87.2,26.4,29.78,SW,235,1.0,10.0,11,0.00,,---,0.00,VWS V14.01,2013-05-16 16:50:00,
2013-05-16 09:55:00,87.4,26.5,29.78,SE,143,1.0,10.0,11,0.00,,---,0.00,VWS V14.01,2013-05-16 16:55:00,
2013-05-16 10:00:00,87.7,26.7,29.78,SSE,159,2.0,10.0,11,0.00,,---,0.00,VWS V14.01,2013-05-16 17:00:00,
2013-05-16 10:06:00,87.9,29.0,29.78,WSW,239,1.0,3.0,12,0.00,,---,0.00,VWS V14.01,2013-05-16 17:06:00,
2013-05-16 10:11:00,88.5,27.4,29.78,SSW,198,11.0,11.0,11,0.00,,---,0.00,VWS V14.01,2013-05-16 17:11:00,
2013-05-16 10:16:00,88.2,29.2,29.78,East,88,3.0,12.0,12,0.00,,---,0.00,VWS V14.01,2013-05-16 17:16:00,
2013-05-16 10:21:00,89.0,27.7,29.78,SW,229,2.0,12.0,11,0.00,,---,0.00,VWS V14.01,2013-05-16 17:21:00,
2013-05-16 10:26:00,89.2,27.9,29.78,WSW,242,6.0,12.0,11,0.00,,---,0.00,VWS V14.01,2013-05-16 17:26:00,
2013-05-16 10:30:00,88.7,27.5,29.77,SW,225,4.0,12.0,11,0.00,,---,0.00,VWS V14.01,2013-05-16 17:30:00,
2013-05-16 10:31:00,88.8,27.6,29.77,WSW,240,4.0,12.0,11,0.00,,---,0.00,VWS V14.01,2013-05-16 17:31:00,
2013-05-16 10:36:00,88.8,27.6,29.77,South,184,2.0,8.0,11,0.00,,---,0.00,VWS V14.01,2013-05-16 17:36:00,
2013-05-16 10:41:00,88.9,27.7,29.77,SW,232,5.0,12.0,11,0.00,,---,0.00,VWS V14.01,2013-05-16 17:41:00,
2013-05-16 10:46:00,89.1,27.8,29.77,WSW,253,11.0,14.0,11,0.00,,---,0.00,VWS V14.01,2013-05-16 17:46:00,
2013-05-16 10:51:00,89.1,25.5,29.77,South,173,0.0,14.0,10,0.00,,---,0.00,VWS V14.01,2013-05-16 17:51:00,
2013-05-16 10:56:00,89.2,27.9,29.76,ESE,104,2.0,14.0,11,0.00,,---,0.00,VWS V14.01,2013-05-16 17:56:00,
2013-05-16 11:00:00,89.5,28.1,29.77,SW,225,5.0,16.0,11,0.00,,---,0.00,VWS V14.01,2013-05-16 18:00:00,
2013-05-16 11:01:00,89.8,28.4,29.77,SSE,150,7.0,15.0,11,0.00,,---,0.00,VWS V14.01,2013-05-16 18:01:00,
2013-05-16 11:06:00,89.3,28.0,29.76,SSE,162,5.0,11.0,11,0.00,,---,0.00,VWS V14.01,2013-05-16 18:06:00,
2013-05-16 11:12:00,90.0,28.5,29.76,South,174,8.0,11.0,11,0.00,,---,0.00,VWS V14.01,2013-05-16 18:12:00,
2013-05-16 11:17:00,90.0,28.5,29.76,SE,134,5.0,11.0,11,0.00,,---,0.00,VWS V14.01,2013-05-16 18:17:00,
2013-05-16 11:22:00,90.0,28.5,29.76,SW,226,6.0,12.0,11,0.00,,---,0.00,VWS V14.01,2013-05-16 18:22:00,
2013-05-16 11:27:00,90.4,26.5,29.75,SSE,155,8.0,12.0,10,0.00,,---,0.00,VWS V14.01,2013-05-16 18:27:00,
2013-05-16 11:30:00,90.5,28.9,29.75,South,180,5.0,12.0,11,0.00,,---,0.00,VWS V14.01,2013-05-16 18:30:00,
2013-05-16 11:32:00,90.6,26.6,29.76,SSE,158,4.0,12.0,10,0.00,,---,0.00,VWS V14.01,2013-05-16 18:32:00,
2013-05-16 11:37:00,90.8,26.8,29.75,SW,229,1.0,8.0,10,0.00,,---,0.00,VWS V14.01,2013-05-16 18:37:00,
2013-05-16 11:42:00,90.9,26.9,29.75,SSW,200,1.0,15.0,10,0.00,,---,0.00,VWS V14.01,2013-05-16 18:42:00,
2013-05-16 11:47:00,91.0,27.0,29.75,SW,214,1.0,15.0,10,0.00,,---,0.00,VWS V14.01,2013-05-16 18:47:00,
2013-05-16 11:52:00,91.0,27.0,29.74,SW,225,2.0,15.0,10,0.00,,---,0.00,VWS V14.01,2013-05-16 18:52:00,
2013-05-16 11:57:00,91.5,27.3,29.74,SSE,150,5.0,15.0,10,0.00,,---,0.00,VWS V14.01,2013-05-16 18:57:00,
2013-05-16 12:00:00,91.9,27.6,29.74,SW,225,4.0,15.0,10,0.00,,---,0.00,VWS V14.01,2013-05-16 19:00:00,
2013-05-16 12:02:00,91.6,27.4,29.74,South,170,2.0,15.0,10,0.00,,---,0.00,VWS V14.01,2013-05-16 19:02:00,
2013-05-16 12:08:00,92.4,25.5,29.74,WSW,240,5.0,7.0,9,0.00,,---,0.00,VWS V14.01,2013-05-16 19:08:00,
2013-05-16 12:13:00,92.1,22.4,29.74,SSW,208,9.0,13.0,8,0.00,,---,0.00,VWS V14.01,2013-05-16 19:13:00,
2013-05-16 12:18:00,92.3,22.6,29.74,SSW,200,3.0,14.0,8,0.00,,---,0.00,VWS V14.01,2013-05-16 19:18:00,
2013-05-16 12:23:00,92.9,23.0,29.74,WSW,255,3.0,14.0,8,0.00,,---,0.00,VWS V14.01,2013-05-16 19:23:00,
2013-05-16 12:28:00,92.2,22.5,29.73,WSW,254,5.0,14.0,8,0.00,,---,0.00,VWS V14.01,2013-05-16 19:28:00,
2013-05-16 12:30:00,92.3,19.4,29.73,WSW,248,6.0,14.0,7,0.00,,---,0.00,VWS V14.01,2013-05-16 19:30:00,
2013-05-16 12:33:00,92.2,19.4,29.73,SSE,161,6.0,14.0,7,0.00,,---,0.00,VWS V14.01,2013-05-16 19:33:00,
2013-05-16 12:38:00,92.4,22.6,29.73,SW,233,2.0,9.0,8,0.00,,---,0.00,VWS V14.01,2013-05-16 19:38:00,
2013-05-16 12:43:00,92.9,23.0,29.72,SSE,159,6.0,11.0,8,0.00,,---,0.00,VWS V14.01,2013-05-16 19:43:00,
2013-05-16 12:48:00,93.2,20.1,29.73,SSE,148,2.0,11.0,7,0.00,,---,0.00,VWS V14.01,2013-05-16 19:48:00,
2013-05-16 12:53:00,94.0,20.7,29.73,ESE,114,9.0,12.0,7,0.00,,---,0.00,VWS V14.01,2013-05-16 19:53:00,
2013-05-16 12:58:00,93.8,20.5,29.72,SE,140,8.0,13.0,7,0.00,,---,0.00,VWS V14.01,2013-05-16 19:58:00,
2013-05-16 13:00:00,93.6,20.4,29.72,South,180,6.0,15.0,7,0.00,,---,0.00,VWS V14.01,2013-05-16 20:00:00,
2013-05-16 13:04:00,93.6,16.8,29.72,SSW,211,4.0,15.0,6,0.00,,---,0.00,VWS V14.01,2013-05-16 20:04:00,
2013-05-16 13:09:00,93.6,16.8,29.72,WSW,243,5.0,11.0,6,0.00,,---,0.00,VWS V14.01,2013-05-16 20:09:00,
2013-05-16 13:14:00,93.2,20.1,29.72,SE,135,4.0,11.0,7,0.00,,---,0.00,VWS V14.01,2013-05-16 20:14:00,
2013-05-16 13:19:00,93.4,20.2,29.72,SW,225,2.0,11.0,7,0.00,,---,0.00,VWS V14.01,2013-05-16 20:19:00,
2013-05-16 13:24:00,94.3,20.9,29.71,SW,232,2.0,11.0,7,0.00,,---,0.00,VWS V14.01,2013-05-16 20:24:00,
2013-05-16 13:29:00,94.5,21.0,29.71,West,261,5.0,15.0,7,0.00,,---,0.00,VWS V14.01,2013-05-16 20:29:00,
2013-05-16 13:30:00,93.8,16.9,29.71,WSW,248,5.0,15.0,6,0.00,,---,0.00,VWS V14.01,2013-05-16 20:30:00,
2013-05-16 13:34:00,93.8,16.9,29.71,WNW,301,11.0,15.0,6,0.00,,---,0.00,VWS V14.01,2013-05-16 20:34:00,
2013-05-16 13:39:00,94.3,17.3,29.71,SW,229,4.0,12.0,6,0.00,,---,0.00,VWS V14.01,2013-05-16 20:39:00,
2013-05-16 13:44:00,94.5,17.4,29.70,WSW,246,3.0,14.0,6,0.00,,---,0.00,VWS V14.01,2013-05-16 20:44:00,
2013-05-16 13:49:00,94.2,20.8,29.70,South,189,7.0,14.0,7,0.00,,---,0.00,VWS V14.01,2013-05-16 20:49:00,
2013-05-16 13:54:00,94.7,17.6,29.70,SW,229,4.0,14.0,6,0.00,,---,0.00,VWS V14.01,2013-05-16 20:54:00,
2013-05-16 13:59:00,94.7,17.6,29.70,West,271,1.0,14.0,6,0.00,,---,0.00,VWS V14.01,2013-05-16 20:59:00,
2013-05-16 14:00:00,94.9,21.3,29.69,WSW,248,5.0,14.0,7,0.00,,---,0.00,VWS V14.01,2013-05-16 21:00:00,
2013-05-16 14:04:00,94.9,21.3,29.69,South,174,4.0,4.0,7,0.00,,---,0.00,VWS V14.01,2013-05-16 21:04:00,
2013-05-16 14:10:00,95.0,17.8,29.69,WNW,287,7.0,14.0,6,0.00,,---,0.00,VWS V14.01,2013-05-16 21:10:00,
2013-05-16 14:15:00,94.7,21.2,29.69,SW,229,7.0,16.0,7,0.00,,---,0.00,VWS V14.01,2013-05-16 21:15:00,
2013-05-16 14:20:00,94.3,20.9,29.69,SW,224,4.0,16.0,7,0.00,,---,0.00,VWS V14.01,2013-05-16 21:20:00,
2013-05-16 14:25:00,94.9,21.3,29.69,SSW,200,4.0,16.0,7,0.00,,---,0.00,VWS V14.01,2013-05-16 21:25:00,
2013-05-16 14:30:00,95.1,21.5,29.68,South,172,5.0,16.0,7,0.00,,---,0.00,VWS V14.01,2013-05-16 21:30:00,
2013-05-16 14:35:00,95.6,18.2,29.68,SW,219,7.0,13.0,6,0.00,,---,0.00,VWS V14.01,2013-05-16 21:35:00,
2013-05-16 14:40:00,95.2,17.9,29.68,SSW,205,10.0,13.0,6,0.00,,---,0.00,VWS V14.01,2013-05-16 21:40:00,
2013-05-16 14:45:00,95.0,17.8,29.67,WSW,248,6.0,14.0,6,0.00,,---,0.00,VWS V14.01,2013-05-16 21:45:00,
2013-05-16 14:50:00,95.1,17.9,29.67,SW,215,10.0,14.0,6,0.00,,---,0.00,VWS V14.01,2013-05-16 21:50:00,
2013-05-16 14:55:00,94.8,21.2,29.67,SW,228,1.0,14.0,7,0.00,,---,0.00,VWS V14.01,2013-05-16 21:55:00,
2013-05-16 15:00:00,94.8,13.5,29.67,SW,236,12.0,14.0,5,0.00,,---,0.00,VWS V14.01,2013-05-16 22:00:00,
2013-05-16 15:06:00,94.8,17.6,29.67,SSE,165,8.0,13.0,6,0.00,,---,0.00,VWS V14.01,2013-05-16 22:06:00,
2013-05-16 15:11:00,95.2,13.7,29.66,WSW,253,3.0,13.0,5,0.00,,---,0.00,VWS V14.01,2013-05-16 22:11:00,
2013-05-16 15:16:00,95.1,17.9,29.66,SE,124,7.0,13.0,6,0.00,,---,0.00,VWS V14.01,2013-05-16 22:16:00,
2013-05-16 15:21:00,95.4,13.9,29.66,SW,224,9.0,13.0,5,0.00,,---,0.00,VWS V14.01,2013-05-16 22:21:00,
2013-05-16 15:26:00,95.4,18.1,29.66,SSE,159,11.0,13.0,6,0.00,,---,0.00,VWS V14.01,2013-05-16 22:26:00,
2013-05-16 15:30:00,95.9,14.2,29.66,SSW,202,5.0,13.0,5,0.00,,---,0.00,VWS V14.01,2013-05-16 22:30:00,
2013-05-16 15:31:00,95.5,18.1,29.66,South,176,3.0,13.0,6,0.00,,---,0.00,VWS V14.01,2013-05-16 22:31:00,
2013-05-16 15:36:00,96.0,14.3,29.66,SSW,208,4.0,9.0,5,0.00,,---,0.00,VWS V14.01,2013-05-16 22:36:00,
2013-05-16 15:41:00,95.4,13.9,29.65,ESE,117,4.0,15.0,5,0.00,,---,0.00,VWS V14.01,2013-05-16 22:41:00,
2013-05-16 15:46:00,95.4,13.9,29.65,WSW,242,6.0,15.0,5,0.00,,---,0.00,VWS V14.01,2013-05-16 22:46:00,
2013-05-16 15:51:00,95.2,13.7,29.65,WSW,238,5.0,15.0,5,0.00,,---,0.00,VWS V14.01,2013-05-16 22:51:00,
2013-05-16 15:56:00,95.3,18.0,29.65,South,172,4.0,15.0,6,0.00,,---,0.00,VWS V14.01,2013-05-16 22:56:00,
2013-05-16 16:00:00,95.0,17.8,29.65,SW,225,5.0,15.0,6,0.00,,---,0.00,VWS V14.01,2013-05-16 23:00:00,
2013-05-16 16:01:00,95.1,17.9,29.65,SW,218,6.0,15.0,6,0.00,,---,0.00,VWS V14.01,2013-05-16 23:01:00,
2013-05-16 16:07:00,95.2,17.9,29.65,SW,236,5.0,8.0,6,0.00,,---,0.00,VWS V14.01,2013-05-16 23:07:00,
2013-05-16 16:12:00,95.0,13.6,29.64,NNW,333,4.0,8.0,5,0.00,,---,0.00,VWS V14.01,2013-05-16 23:12:00,
2013-05-16 16:17:00,95.1,17.9,29.65,SSW,210,2.0,12.0,6,0.00,,---,0.00,VWS V14.01,2013-05-16 23:17:00,
2013-05-16 16:22:00,94.8,13.5,29.65,SW,231,8.0,17.0,5,0.00,,---,0.00,VWS V14.01,2013-05-16 23:22:00,
2013-05-16 16:27:00,94.5,17.4,29.64,SW,235,5.0,17.0,6,0.00,,---,0.00,VWS V14.01,2013-05-16 23:27:00,
2013-05-16 16:30:00,94.4,17.4,29.64,SW,225,6.0,17.0,6,0.00,,---,0.00,VWS V14.01,2013-05-16 23:30:00,
2013-05-16 16:32:00,94.4,17.4,29.64,West,278,4.0,17.0,6,0.00,,---,0.00,VWS V14.01,2013-05-16 23:32:00,
2013-05-16 16:37:00,94.5,17.4,29.64,WSW,244,3.0,7.0,6,0.00,,---,0.00,VWS V14.01,2013-05-16 23:37:00,
2013-05-16 16:42:00,94.6,17.5,29.64,SW,217,5.0,10.0,6,0.00,,---,0.00,VWS V14.01,2013-05-16 23:42:00,
2013-05-16 16:47:00,94.4,17.4,29.64,SW,233,6.0,14.0,6,0.00,,---,0.00,VWS V14.01,2013-05-16 23:47:00,
2013-05-16 16:52:00,94.3,17.3,29.64,WSW,252,13.0,14.0,6,0.00,,---,0.00,VWS V14.01,2013-05-16 23:52:00,
2013-05-16 16:58:00,94.1,17.1,29.64,SW,229,3.0,14.0,6,0.00,,---,0.00,VWS V14.01,2013-05-16 23:58:00,
2013-05-16 17:00:00,94.3,17.3,29.64,SW,225,6.0,15.0,6,0.00,,---,0.00,VWS V14.01,2013-05-17 00:00:00,
2013-05-16 17:03:00,94.2,17.2,29.63,WSW,243,8.0,14.0,6,0.00,,---,0.00,VWS V14.01,2013-05-17 00:03:00,
2013-05-16 17:08:00,94.4,17.4,29.63,SW,228,4.0,12.0,6,0.00,,---,0.00,VWS V14.01,2013-05-17 00:08:00,
2013-05-16 17:13:00,93.7,16.9,29.63,SSE,153,7.0,14.0,6,0.00,,---,0.00,VWS V14.01,2013-05-17 00:13:00,
2013-05-16 17:18:00,93.7,16.9,29.63,WSW,240,5.0,14.0,6,0.00,,---,0.00,VWS V14.01,2013-05-17 00:18:00,
2013-05-16 17:23:00,93.9,17.0,29.63,West,278,1.0,14.0,6,0.00,,---,0.00,VWS V14.01,2013-05-17 00:23:00,
2013-05-16 17:28:00,93.9,17.0,29.63,WSW,241,9.0,14.0,6,0.00,,---,0.00,VWS V14.01,2013-05-17 00:28:00,
2013-05-16 17:30:00,93.4,16.6,29.63,WSW,248,6.0,16.0,6,0.00,,---,0.00,VWS V14.01,2013-05-17 00:30:00,
2013-05-16 17:33:00,93.4,16.6,29.63,West,270,11.0,14.0,6,0.00,,---,0.00,VWS V14.01,2013-05-17 00:33:00,
2013-05-16 17:38:00,92.9,16.3,29.63,WNW,284,6.0,13.0,6,0.00,,---,0.00,VWS V14.01,2013-05-17 00:38:00,
2013-05-16 17:43:00,92.7,16.1,29.63,SW,229,6.0,13.0,6,0.00,,---,0.00,VWS V14.01,2013-05-17 00:43:00,
2013-05-16 17:49:00,92.4,15.9,29.63,West,259,3.0,13.0,6,0.00,,---,0.00,VWS V14.01,2013-05-17 00:49:00,
2013-05-16 17:54:00,92.7,16.1,29.63,WSW,242,6.0,13.0,6,0.00,,---,0.00,VWS V14.01,2013-05-17 00:54:00,
2013-05-16 17:59:00,92.4,15.9,29.63,SSW,212,7.0,14.0,6,0.00,,---,0.00,VWS V14.01,2013-05-17 00:59:00,
2013-05-16 18:00:00,92.1,15.7,29.63,WSW,248,7.0,14.0,6,0.00,,---,0.00,VWS V14.01,2013-05-17 01:00:00,
2013-05-16 18:04:00,92.1,15.7,29.63,SW,222,7.0,14.0,6,0.00,,---,0.00,VWS V14.01,2013-05-17 01:04:00,
2013-05-16 18:09:00,92.0,15.6,29.62,West,273,5.0,13.0,6,0.00,,---,0.00,VWS V14.01,2013-05-17 01:09:00,
2013-05-16 18:14:00,92.0,15.6,29.62,WSW,240,7.0,13.0,6,0.00,,---,0.00,VWS V14.01,2013-05-17 01:14:00,
2013-05-16 18:19:00,91.5,15.3,29.62,WSW,253,7.0,13.0,6,0.00,,---,0.00,VWS V14.01,2013-05-17 01:19:00,
2013-05-16 18:24:00,91.1,15.0,29.62,SW,236,5.0,13.0,6,0.00,,---,0.00,VWS V14.01,2013-05-17 01:24:00,
2013-05-16 18:29:00,90.9,14.9,29.63,WSW,238,4.0,13.0,6,0.00,,---,0.00,VWS V14.01,2013-05-17 01:29:00,
2013-05-16 18:30:00,90.7,14.7,29.63,WSW,248,6.0,14.0,6,0.00,,---,0.00,VWS V14.01,2013-05-17 01:30:00,
2013-05-16 18:34:00,90.7,14.7,29.63,WSW,239,5.0,8.0,6,0.00,,---,0.00,VWS V14.01,2013-05-17 01:34:00,
2013-05-16 18:39:00,90.2,14.4,29.63,WSW,239,8.0,15.0,6,0.00,,---,0.00,VWS V14.01,2013-05-17 01:39:00,
2013-05-16 18:45:00,89.9,14.1,29.63,WNW,285,6.0,15.0,6,0.00,,---,0.00,VWS V14.01,2013-05-17 01:45:00,
2013-05-16 18:50:00,89.5,17.4,29.63,West,263,8.0,15.0,7,0.00,,---,0.00,VWS V14.01,2013-05-17 01:50:00,
2013-05-16 18:55:00,88.9,17.0,29.64,West,280,8.0,16.0,7,0.00,,---,0.00,VWS V14.01,2013-05-17 01:55:00,
2013-05-16 19:00:00,88.3,19.6,29.64,SSW,208,4.0,16.0,8,0.00,,---,0.00,VWS V14.01,2013-05-17 02:00:00,
2013-05-16 19:05:00,87.8,19.2,29.64,WSW,247,5.0,10.0,8,0.00,,---,0.00,VWS V14.01,2013-05-17 02:05:00,
2013-05-16 19:10:00,87.2,21.6,29.64,WNW,300,5.0,10.0,9,0.00,,---,0.00,VWS V14.01,2013-05-17 02:10:00,
2013-05-16 19:15:00,86.6,21.1,29.64,WSW,239,5.0,11.0,9,0.00,,---,0.00,VWS V14.01,2013-05-17 02:15:00,
2013-05-16 19:20:00,86.2,20.8,29.64,West,277,5.0,11.0,9,0.00,,---,0.00,VWS V14.01,2013-05-17 02:20:00,
2013-05-16 19:25:00,85.7,20.4,29.65,WSW,239,7.0,11.0,9,0.00,,---,0.00,VWS V14.01,2013-05-17 02:25:00,
2013-05-16 19:30:00,85.4,22.7,29.65,West,267,7.0,11.0,10,0.00,,---,0.00,VWS V14.01,2013-05-17 02:30:00,
2013-05-16 19:35:00,85.0,22.4,29.65,WSW,257,3.0,9.0,10,0.00,,---,0.00,VWS V14.01,2013-05-17 02:35:00,
2013-05-16 19:41:00,84.8,22.2,29.65,SW,229,3.0,9.0,10,0.00,,---,0.00,VWS V14.01,2013-05-17 02:41:00,
2013-05-16 19:46:00,84.5,22.0,29.66,WSW,252,3.0,9.0,10,0.00,,---,0.00,VWS V14.01,2013-05-17 02:46:00,
2013-05-16 19:51:00,84.1,21.7,29.66,West,271,3.0,9.0,10,0.00,,---,0.00,VWS V14.01,2013-05-17 02:51:00,
2013-05-16 19:56:00,83.7,23.7,29.66,WSW,238,5.0,9.0,11,0.00,,---,0.00,VWS V14.01,2013-05-17 02:56:00,
2013-05-16 20:00:00,83.0,23.1,29.67,WSW,248,3.0,9.0,11,0.00,,---,0.00,VWS V14.01,2013-05-17 03:00:00,
2013-05-16 20:01:00,83.3,23.4,29.66,WSW,245,2.0,9.0,11,0.00,,---,0.00,VWS V14.01,2013-05-17 03:01:00,
2013-05-16 20:06:00,82.8,23.0,29.67,SW,229,2.0,5.0,11,0.00,,---,0.00,VWS V14.01,2013-05-17 03:06:00,
2013-05-16 20:11:00,82.4,24.7,29.67,WSW,240,5.0,6.0,12,0.00,,---,0.00,VWS V14.01,2013-05-17 03:11:00,
2013-05-16 20:16:00,82.1,24.5,29.68,West,269,6.0,6.0,12,0.00,,---,0.00,VWS V14.01,2013-05-17 03:16:00,
2013-05-16 20:21:00,81.9,24.4,29.68,West,263,3.0,6.0,12,0.00,,---,0.00,VWS V14.01,2013-05-17 03:21:00,
2013-05-16 20:26:00,81.7,24.2,29.68,SW,233,2.0,6.0,12,0.00,,---,0.00,VWS V14.01,2013-05-17 03:26:00,
2013-05-16 20:30:00,81.3,25.8,29.68,WSW,248,2.0,6.0,13,0.00,,---,0.00,VWS V14.01,2013-05-17 03:30:00,
2013-05-16 20:32:00,81.4,25.9,29.68,SSW,212,1.0,6.0,13,0.00,,---,0.00,VWS V14.01,2013-05-17 03:32:00,
2013-05-16 20:37:00,81.1,25.6,29.68,WSW,249,0.0,0.0,13,0.00,,---,0.00,VWS V14.01,2013-05-17 03:37:00,
2013-05-16 20:42:00,80.5,25.2,29.69,WSW,249,0.0,0.0,13,0.00,,---,0.00,VWS V14.01,2013-05-17 03:42:00,
2013-05-16 20:47:00,79.9,26.5,29.69,WSW,250,0.0,0.0,14,0.00,,---,0.00,VWS V14.01,2013-05-17 03:47:00,
2013-05-16 20:52:00,79.6,26.3,29.70,WSW,249,0.0,0.0,14,0.00,,---,0.00,VWS V14.01,2013-05-17 03:52:00,
2013-05-16 20:57:00,79.2,25.9,29.70,SW,229,0.0,0.0,14,0.00,,---,0.00,VWS V14.01,2013-05-17 03:57:00,
2013-05-16 21:00:00,78.3,26.9,29.70,SE,135,0.0,1.0,15,0.00,,---,0.00,VWS V14.01,2013-05-17 04:00:00,
2013-05-16 21:01:00,78.8,27.3,29.70,SW,229,0.0,0.0,15,0.00,,---,0.00,VWS V14.01,2013-05-17 04:01:00,
2013-05-16 21:02:00,78.6,27.1,29.70,SW,229,0.0,0.0,15,0.00,,---,0.00,VWS V14.01,2013-05-17 04:02:00,
2013-05-16 21:03:00,78.5,27.0,29.70,SW,229,0.0,0.0,15,0.00,,---,0.00,VWS V14.01,2013-05-17 04:03:00,
2013-05-16 21:08:00,78.1,26.7,29.70,SSW,206,1.0,2.0,15,0.00,,---,0.00,VWS V14.01,2013-05-17 04:08:00,
2013-05-16 21:13:00,78.2,26.8,29.71,SSW,198,0.0,2.0,15,0.00,,---,0.00,VWS V14.01,2013-05-17 04:13:00,
2013-05-16 21:18:00,77.9,26.6,29.71,ESE,107,2.0,2.0,15,0.00,,---,0.00,VWS V14.01,2013-05-17 04:18:00,
2013-05-16 21:24:00,77.7,28.0,29.71,SSE,148,0.0,2.0,16,0.00,,---,0.00,VWS V14.01,2013-05-17 04:24:00,
2013-05-16 21:29:00,77.9,28.1,29.72,SW,236,0.0,2.0,16,0.00,,---,0.00,VWS V14.01,2013-05-17 04:29:00,
2013-05-16 21:30:00,78.1,28.3,29.72,SSW,202,0.0,3.0,16,0.00,,---,0.00,VWS V14.01,2013-05-17 04:30:00,
2013-05-16 21:34:00,78.0,28.2,29.72,SSW,208,3.0,3.0,16,0.00,,---,0.00,VWS V14.01,2013-05-17 04:34:00,
2013-05-16 21:39:00,77.9,28.1,29.72,SW,228,1.0,2.0,16,0.00,,---,0.00,VWS V14.01,2013-05-17 04:39:00,
2013-05-16 21:44:00,77.5,27.8,29.72,SW,228,0.0,2.0,16,0.00,,---,0.00,VWS V14.01,2013-05-17 04:44:00,
2013-05-16 21:49:00,77.2,27.6,29.73,SSW,193,0.0,2.0,16,0.00,,---,0.00,VWS V14.01,2013-05-17 04:49:00,
2013-05-16 21:54:00,77.1,27.5,29.73,SSW,211,0.0,2.0,16,0.00,,---,0.00,VWS V14.01,2013-05-17 04:54:00,
2013-05-16 21:59:00,76.7,27.2,29.73,SSW,211,0.0,2.0,16,0.00,,---,0.00,VWS V14.01,2013-05-17 04:59:00,
2013-05-16 22:00:00,76.2,26.8,29.73,SSW,202,0.0,2.0,16,0.00,,---,0.00,VWS V14.01,2013-05-17 05:00:00,
2013-05-16 22:04:00,76.2,26.8,29.73,SSW,211,0.0,2.0,16,0.00,,---,0.00,VWS V14.01,2013-05-17 05:04:00,
2013-05-16 22:09:00,76.1,26.7,29.73,SSW,212,0.0,0.0,16,0.00,,---,0.00,VWS V14.01,2013-05-17 05:09:00,
2013-05-16 22:14:00,75.8,27.9,29.73,SSW,212,0.0,0.0,17,0.00,,---,0.00,VWS V14.01,2013-05-17 05:14:00,
2013-05-16 22:19:00,75.6,26.3,29.73,SSW,211,0.0,0.0,16,0.00,,---,0.00,VWS V14.01,2013-05-17 05:19:00,
2013-05-16 22:25:00,75.5,27.7,29.74,SSW,211,0.0,0.0,17,0.00,,---,0.00,VWS V14.01,2013-05-17 05:25:00,
2013-05-16 22:30:00,75.4,26.1,29.74,SSW,211,0.0,0.0,16,0.00,,---,0.00,VWS V14.01,2013-05-17 05:30:00,
2013-05-16 22:35:00,75.8,26.5,29.74,WSW,243,2.0,3.0,16,0.00,,---,0.00,VWS V14.01,2013-05-17 05:35:00,
2013-05-16 22:40:00,75.9,26.5,29.74,SW,221,0.0,3.0,16,0.00,,---,0.00,VWS V14.01,2013-05-17 05:40:00,
2013-05-16 22:45:00,75.7,26.4,29.74,SW,226,0.0,3.0,16,0.00,,---,0.00,VWS V14.01,2013-05-17 05:45:00,
2013-05-16 22:50:00,75.5,26.2,29.74,SW,226,0.0,3.0,16,0.00,,---,0.00,VWS V14.01,2013-05-17 05:50:00,
2013-05-16 22:55:00,75.1,25.9,29.74,WSW,237,0.0,3.0,16,0.00,,---,0.00,VWS V14.01,2013-05-17 05:55:00,
2013-05-16 23:00:00,75.1,25.9,29.74,WSW,253,0.0,3.0,16,0.00,,---,0.00,VWS V14.01,2013-05-17 06:00:00,
2013-05-16 23:05:00,75.0,25.8,29.74,WSW,255,0.0,1.0,16,0.00,,---,0.00,VWS V14.01,2013-05-17 06:05:00,
2013-05-16 23:10:00,75.4,26.1,29.74,WSW,255,0.0,1.0,16,0.00,,---,0.00,VWS V14.01,2013-05-17 06:10:00,
2013-05-16 23:15:00,75.6,26.3,29.74,West,262,0.0,1.0,16,0.00,,---,0.00,VWS V14.01,2013-05-17 06:15:00,
2013-05-16 23:21:00,75.5,26.2,29.74,West,268,1.0,2.0,16,0.00,,---,0.00,VWS V14.01,2013-05-17 06:21:00,
2013-05-16 23:26:00,75.4,26.1,29.74,West,277,0.0,2.0,16,0.00,,---,0.00,VWS V14.01,2013-05-17 06:26:00,
2013-05-16 23:30:00,73.8,26.3,29.74,West,270,0.0,2.0,17,0.00,,---,0.00,VWS V14.01,2013-05-17 06:30:00,
2013-05-16 23:31:00,74.6,27.0,29.74,West,277,0.0,2.0,17,0.00,,---,0.00,VWS V14.01,2013-05-17 06:31:00,
2013-05-16 23:36:00,73.5,26.1,29.74,West,277,0.0,1.0,17,0.00,,---,0.00,VWS V14.01,2013-05-17 06:36:00,
2013-05-16 23:41:00,72.7,26.8,29.73,West,277,0.0,1.0,18,0.00,,---,0.00,VWS V14.01,2013-05-17 06:41:00,
2013-05-16 23:46:00,72.3,26.5,29.73,West,280,0.0,1.0,18,0.00,,---,0.00,VWS V14.01,2013-05-17 06:46:00,
2013-05-16 23:51:00,72.2,26.4,29.73,West,278,0.0,1.0,18,0.00,,---,0.00,VWS V14.01,2013-05-17 06:51:00,
2013-05-16 23:56:00,72.1,26.3,29.73,West,278,0.0,1.0,18,0.00,,---,0.00,VWS V14.01,2013-05-17 06:56:00,